Starlink 34109

operational
NORAD ID: 63807 Int'l Des: 2025-092 Owner: SPXS Country: US Constellation: starlink
LEOCIRCULAR

Über Starlink 34109

Beschreibung wird geladen...

Live-Position

3D-Globus wird geladen...

Nächste Überflüge

Höhenverlauf

Altitude vs Time

uPlot chart will show altitude changes over time

Zweizeiliger Elementsatz

1 63807U 25092D 25304.72419183 .00019621 00000-0 72092-3 0 9993
2 63807 43.0019 180.6514 0001256 238.5381 121.5348 15.27567096 28891
Epoch: 31. Okt. 2025 • Age: 23 hours

Aktueller Status

Höhe 484.3 km
Geschwindigkeit 7.63 km/s
Subsatellitenpunkt 32.24°N, 33.22°E
Startdatum 4. Mai 2025
Alter 0.4 years
Typ internet

Technische Details

Klassifizierung Payload
Masse 575.00 kg
Trockenmasse 530.00 kg
Gesamtmasse 575.00 kg
Länge 0.30 m
Durchmesser 4.10 m
Spannweite 29.00 m
Form Box + pan
Hersteller SPXS
Bus-Typ Starlink V2MO
Phasenstatus In Orbit
Besitzer/Staat SPXS/US

Große Konstellationen

Loading constellations...